Weather History for KUES - November, 2012

Change the Weather History Date:

Thursday, November 22, 2012

  Actual Average Record
Temperature  
Mean Temperature 52 °F -  
Max Temperature 62 °F 42 °F 62 °F (2010)
Min Temperature 39 °F 26 °F 7 °F (1964)
Degree Days  
Heating Degree Days 14    
Growing Degree Days 2 (Base 50)    
Moisture  
Dew Point 40 °F    
Average Humidity 75    
Maximum Humidity 87    
Minimum Humidity 48    
Precipitation  
Precipitation 0.00 in - - ()
Sea Level Pressure  
Sea Level Pressure 29.86 in    
Wind  
Wind Speed 12 mph (SSW)    
Max Wind Speed 29 mph    
Max Gust Speed 37 mph    
Visibility 9 miles    
Events      
Averages and records for this station are not official NWS values.
T = Trace of Precipitation, MM = Missing Value Source: NWS Daily Summary

Daily Weather History Graph

Daily Weather History Graph

Search for Another Location

Airport or City:

Trip Planner

Search our weather history database for the weather conditions in past years. The results will help you decide how hot, cold, wet, or windy it might be!

Date:

Astronomy

Nov. 22, 2012 Rise Set
Actual Time 6:54 AM CST 4:23 PM CST
Civil Twilight 6:23 AM CST 4:54 PM CST
Nautical Twilight 5:48 AM CST 5:29 PM CST
Astronomical Twilight 5:14 AM CST 6:03 PM CST
Moon 1:15 PM CST (11/22) 1:06 AM CST (11/22)
Length of Visible Light 10h 30m
Length of Day
9h 28m
Waxing Gibbous, 71% of the Moon is Illuminated
Nov 22
Waxing Gibbous
Nov 28
Full
Dec 6
Last Quarter
Dec 13
New
Dec 19
First Quarter

Hourly Weather History & Observations

Time (CST) Temp. Windchill Dew Point Humidity Pressure Visibility Wind Dir Wind Speed Gust Speed Precip Events Conditions
12:15 AM 44.6 °F 39.7 °F 33.8 °F 66% 30.02 in 10.0 mi South 9.2 mph - N/A   Clear
12:35 AM 44.6 °F 39.7 °F 33.8 °F 66% 30.02 in 10.0 mi SSW 9.2 mph - N/A   Clear
12:55 AM 44.6 °F 39.2 °F 35.6 °F 71% 30.02 in 10.0 mi SSW 10.4 mph - N/A   Clear
1:15 AM 44.6 °F 38.8 °F 37.4 °F 76% 30.02 in 10.0 mi SSW 11.5 mph - N/A   Clear
1:35 AM 44.6 °F 38.8 °F 37.4 °F 76% 30.01 in 10.0 mi SSW 11.5 mph 17.3 mph N/A   Clear
1:55 AM 44.6 °F 38.8 °F 39.2 °F 81% 30.01 in 7.0 mi SSW 11.5 mph - N/A   Clear
2:15 AM 44.6 °F 38.4 °F 39.2 °F 81% 30.01 in 7.0 mi SSW 12.7 mph 18.4 mph N/A   Clear
2:35 AM 44.6 °F 38.4 °F 41.0 °F 87% 30.00 in 7.0 mi SSW 12.7 mph 18.4 mph N/A   Clear
2:55 AM 44.6 °F 38.8 °F 41.0 °F 87% 30.00 in 7.0 mi SSW 11.5 mph 17.3 mph N/A   Clear
3:15 AM 44.6 °F 40.2 °F 41.0 °F 87% 29.99 in 7.0 mi South 8.1 mph 16.1 mph N/A   Clear
3:35 AM 44.6 °F 39.7 °F 41.0 °F 87% 29.98 in 7.0 mi South 9.2 mph - N/A   Clear
3:55 AM 44.6 °F 40.7 °F 41.0 °F 87% 29.98 in 7.0 mi SSW 6.9 mph - N/A   Clear
4:15 AM 44.6 °F 40.2 °F 41.0 °F 87% 29.98 in 7.0 mi South 8.1 mph - N/A   Clear
4:35 AM 42.8 °F 38.0 °F 37.4 °F 81% 29.97 in 7.0 mi South 8.1 mph - N/A   Clear
5:45 AM 42.8 °F 37.5 °F 39.2 °F 87% 29.94 in 5.0 mi South 9.2 mph - N/A   Clear
6:45 AM 42.8 °F 37.0 °F 39.2 °F 87% 29.93 in 5.0 mi South 10.4 mph - N/A   Clear
7:45 AM 44.6 °F 38.8 °F 39.2 °F 81% 29.91 in 7.0 mi South 11.5 mph - N/A   Clear
8:45 AM 48.2 °F - 41.0 °F 76% 29.91 in 7.0 mi South 15.0 mph - N/A   Clear
9:45 AM 50.0 °F - 41.0 °F 71% 29.89 in 10.0 mi South 8.1 mph - N/A   Partly Cloudy
10:45 AM 55.4 °F - 41.0 °F 58% 29.86 in 10.0 mi South 8.1 mph - N/A   Mostly Cloudy
11:45 AM 60.8 °F - 41.0 °F 48% 29.81 in 10.0 mi South 15.0 mph - N/A   Scattered Clouds
12:45 PM 62.6 °F - 42.8 °F 48% 29.78 in 10.0 mi South 12.7 mph - N/A   Scattered Clouds
1:45 PM 60.8 °F - 42.8 °F 52% 29.75 in 10.0 mi South 17.3 mph 28.8 mph N/A   Scattered Clouds
2:45 PM 59.0 °F - 42.8 °F 55% 29.73 in 10.0 mi South 17.3 mph 28.8 mph N/A   Scattered Clouds
3:45 PM 59.0 °F - 44.6 °F 59% 29.73 in 10.0 mi South 11.5 mph 23.0 mph N/A   Scattered Clouds
4:45 PM 59.0 °F - 44.6 °F 59% 29.73 in 10.0 mi SSW 13.8 mph 25.3 mph N/A   Scattered Clouds
5:45 PM 55.4 °F - 46.4 °F 72% 29.73 in 10.0 mi South 11.5 mph 23.0 mph N/A   Scattered Clouds
6:45 PM 53.6 °F - 48.2 °F 82% 29.74 in 10.0 mi SSW 11.5 mph 23.0 mph N/A   Overcast
7:45 PM 53.6 °F - 48.2 °F 82% 29.72 in 10.0 mi SW 11.5 mph 23.0 mph N/A   Mostly Cloudy
8:35 PM 51.8 °F - 46.4 °F 82% 29.71 in 10.0 mi SW 12.7 mph 19.6 mph N/A   Scattered Clouds
8:45 PM 53.6 °F - 48.2 °F 82% 29.71 in 10.0 mi SW 13.8 mph - N/A   Clear
8:55 PM 51.8 °F - 46.4 °F 82% 29.71 in 10.0 mi SW 11.5 mph 19.6 mph N/A   Clear
9:15 PM 53.6 °F - 46.4 °F 77% 29.71 in 10.0 mi WSW 15.0 mph 24.2 mph N/A   Clear
9:35 PM 51.8 °F - 44.6 °F 76% 29.72 in 10.0 mi WSW 17.3 mph 24.2 mph N/A   Scattered Clouds
9:55 PM 50.0 °F - 41.0 °F 71% 29.73 in 10.0 mi West 28.8 mph 35.7 mph N/A   Mostly Cloudy
10:15 PM 42.8 °F 33.1 °F 35.6 °F 76% 29.75 in 10.0 mi West 25.3 mph 36.8 mph N/A   Scattered Clouds
10:35 PM 41.0 °F 31.4 °F 35.6 °F 81% 29.76 in 10.0 mi West 21.9 mph 35.7 mph N/A   Clear
10:55 PM 41.0 °F 30.0 °F 33.8 °F 76% 29.76 in 10.0 mi West 28.8 mph 36.8 mph N/A   Mostly Cloudy
11:15 PM 41.0 °F 31.4 °F 33.8 °F 76% 29.78 in 10.0 mi West 21.9 mph 33.4 mph N/A   Overcast
11:35 PM 41.0 °F 31.6 °F 32.0 °F 70% 29.78 in 10.0 mi West 20.7 mph 32.2 mph N/A   Overcast
11:55 PM 39.2 °F 28.7 °F 32.0 °F 75% 29.79 in 10.0 mi West 23.0 mph 29.9 mph N/A   Overcast